TimePDT,TemperatureF,Dew PointF,Humidity,Sea Level PressureIn,VisibilityMPH,Wind Direction,Wind SpeedMPH,Gust SpeedMPH,PrecipitationIn,Events,Conditions,WindDirDegrees,DateUTC
12:50 AM,39.0,29.8,70,30.17,15.0,WNW,4.6,-,N/A,,Overcast,300,2013-03-12 07:50:00
1:50 AM,40.5,30.0,66,30.15,15.0,WNW,5.8,-,N/A,,Overcast,300,2013-03-12 08:50:00
2:50 AM,40.1,31.1,70,30.13,15.0,NW,5.8,-,N/A,,Overcast,320,2013-03-12 09:50:00
3:50 AM,39.4,31.3,73,30.13,15.0,WSW,4.6,-,N/A,,Overcast,240,2013-03-12 10:50:00
4:50 AM,40.3,30.7,69,30.12,15.0,NNW,6.9,-,N/A,,Overcast,330,2013-03-12 11:50:00
5:50 AM,39.6,32.2,75,30.12,15.0,North,4.6,-,N/A,,Overcast,360,2013-03-12 12:50:00
6:50 AM,39.0,33.1,79,30.11,15.0,East,2.3,-,N/A,,Overcast,80,2013-03-12 13:50:00
7:50 AM,41.7,33.6,73,30.10,15.0,NNW,4.6,-,N/A,,Overcast,330,2013-03-12 14:50:00
8:50 AM,44.4,35.4,71,30.09,15.0,NNE,4.6,-,N/A,,Overcast,20,2013-03-12 15:50:00
9:50 AM,46.4,37.2,70,30.08,15.0,East,4.6,-,N/A,,Overcast,80,2013-03-12 16:50:00
10:50 AM,52.2,41.2,66,30.09,15.0,ENE,5.8,-,N/A,,Overcast,70,2013-03-12 17:50:00
11:50 AM,59.2,41.2,51,30.08,15.0,WSW,11.5,-,N/A,,Overcast,240,2013-03-12 18:50:00
12:50 PM,59.5,40.3,49,30.07,15.0,SW,17.3,24.2,N/A,,Overcast,230,2013-03-12 19:50:00
1:50 PM,60.6,40.1,47,30.06,15.0,SW,17.3,24.2,N/A,,Overcast,230,2013-03-12 20:50:00
2:50 PM,61.5,40.1,45,30.05,15.0,SW,18.4,-,N/A,,Overcast,230,2013-03-12 21:50:00
3:50 PM,61.5,39.9,45,30.05,15.0,SW,13.8,-,N/A,,Overcast,220,2013-03-12 22:50:00
4:50 PM,62.2,40.3,44,30.05,15.0,SW,17.3,-,N/A,,Overcast,230,2013-03-12 23:50:00
5:50 PM,60.8,42.6,51,30.05,15.0,WSW,13.8,-,N/A,,Overcast,240,2013-03-13 00:50:00
6:50 PM,59.2,39.7,49,30.05,15.0,SW,11.5,-,N/A,,Overcast,230,2013-03-13 01:50:00
9:50 PM,54.0,31.1,42,30.07,15.0,SW,11.5,-,N/A,Rain,Light Rain,220,2013-03-13 04:50:00
10:50 PM,53.8,40.8,62,30.08,15.0,WSW,10.4,-,N/A,,Overcast,240,2013-03-13 05:50:00
11:50 PM,54.1,41.0,61,30.08,15.0,SW,13.8,-,N/A,,Overcast,220,2013-03-13 06:50:00